Location: Unspecified
(0.0000°N, 0.0000°E)
Time: 11:30:23
(UTC+00:00)

A-11 Canister half - Pass Details

Date: 02 August 2021
Orbit: 1515 x 1685 km, 47.2° (Epoch: 27 September)

Event Time Altitude Azimuth Distance (km) Brightness Sun altitude
Rises 01:17:15 0° 324° (NW) 4,922 - -65.1°
Reaches altitude 10° 01:20:26 10° 325° (NW) 3,928 - -64.6°
Maximum altitude 01:30:32 77° 51° (NE) 1,684 - -62.7°
Drops below altitude 10° 01:40:21 10° 136° (SE) 3,828 - -60.9°
Sets 01:43:24 0° 137° (SE) 4,792 - -60.3°
